TimePDT,TemperatureF,Dew PointF,Humidity,Sea Level PressureIn,VisibilityMPH,Wind Direction,Wind SpeedMPH,Gust SpeedMPH,PrecipitationIn,Events,Conditions,WindDirDegrees,DateUTC
12:52 AM,75.0,51.1,43,29.70,8.0,NNW,19.6,28.8,N/A,,Clear,330,2013-05-17 07:52:00
1:52 AM,75.0,51.1,43,29.71,9.0,NNW,16.1,23.0,N/A,,Clear,330,2013-05-17 08:52:00
2:52 AM,73.9,51.1,45,29.72,10.0,NNW,15.0,21.9,N/A,,Clear,330,2013-05-17 09:52:00
3:52 AM,73.0,51.1,46,29.72,10.0,NW,13.8,20.7,N/A,,Clear,320,2013-05-17 10:52:00
4:52 AM,73.0,50.0,44,29.73,10.0,NNW,17.3,27.6,N/A,,Clear,330,2013-05-17 11:52:00
5:52 AM,72.0,50.0,46,29.75,10.0,NW,11.5,24.2,N/A,,Clear,310,2013-05-17 12:52:00
6:52 AM,72.0,50.0,46,29.76,10.0,NW,11.5,20.7,N/A,,Clear,320,2013-05-17 13:52:00
7:52 AM,72.0,50.0,46,29.78,10.0,NW,10.4,-,N/A,,Clear,320,2013-05-17 14:52:00
8:52 AM,72.0,51.1,48,29.80,10.0,WNW,8.1,-,N/A,,Clear,290,2013-05-17 15:52:00
9:52 AM,75.0,51.1,43,29.81,10.0,NW,9.2,-,N/A,,Clear,320,2013-05-17 16:52:00
10:52 AM,80.1,50.0,35,29.81,10.0,NW,4.6,-,N/A,,Clear,320,2013-05-17 17:52:00
11:52 AM,84.9,48.9,29,29.80,10.0,Variable,6.9,-,N/A,,Clear,0,2013-05-17 18:52:00
12:52 PM,87.1,48.0,26,29.78,10.0,WNW,9.2,-,N/A,,Clear,300,2013-05-17 19:52:00
1:52 PM,91.0,45.0,20,29.76,10.0,North,9.2,-,N/A,,Clear,350,2013-05-17 20:52:00
2:52 PM,91.0,46.9,22,29.74,10.0,ESE,5.8,-,N/A,,Clear,120,2013-05-17 21:52:00
3:52 PM,91.9,42.1,18,29.72,10.0,Variable,3.5,-,N/A,,Clear,0,2013-05-17 22:52:00
4:52 PM,91.9,42.1,18,29.72,10.0,WNW,16.1,23.0,N/A,,Clear,290,2013-05-17 23:52:00
5:52 PM,89.1,43.0,20,29.72,10.0,NNW,17.3,26.5,N/A,,Clear,330,2013-05-18 00:52:00
6:52 PM,84.0,45.0,25,29.76,10.0,NNW,20.7,32.2,N/A,,Clear,340,2013-05-18 01:52:00
7:52 PM,80.1,50.0,35,29.76,10.0,NNW,18.4,27.6,N/A,,Clear,330,2013-05-18 02:52:00
8:52 PM,77.0,51.1,40,29.78,10.0,NNW,20.7,31.1,N/A,,Clear,340,2013-05-18 03:52:00
9:52 PM,75.9,51.1,42,29.80,10.0,NNW,18.4,31.1,N/A,,Clear,340,2013-05-18 04:52:00
10:52 PM,75.0,51.1,43,29.83,10.0,NNW,23.0,29.9,N/A,,Clear,340,2013-05-18 05:52:00
11:52 PM,73.0,51.1,46,29.80,10.0,NNW,23.0,29.9,N/A,,Clear,340,2013-05-18 06:52:00